Location: Bratislava
(48.1500°N, 17.1170°E)
Time: 07:09:54
(UTC+02:00)

SR - Visible Passes

Search period start: 08 June 2026 00:00
Search period end: 18 June 2026 00:00
Orbit: 567 x 853 km, 66.7° (Epoch: 7 June)

Date Brightness Start Highest point End Pass type
(mag) Time Alt. Az. Time Alt. Az. Time Alt. Az.
8 Jun ? 01:35:43 26° SSE 01:37:35 35° ESE 01:42:29 10° NE visible
8 Jun ? 03:14:44 13° WSW 03:19:10 46° NW 03:24:32 10° NNE visible
9 Jun ? 00:41:48 16° ESE 00:42:55 17° ESE 00:46:17 10° ENE visible
9 Jun ? 02:20:48 26° SW 02:23:50 83° NW 02:29:24 10° NE visible
9 Jun ? 04:02:15 10° W 04:06:25 23° NNW 04:10:49 10° NNE visible
10 Jun ? 01:26:51 33° S 01:28:46 50° ESE 01:34:04 10° NE visible
10 Jun ? 03:05:55 10° WSW 03:10:42 35° NW 03:15:49 10° NNE visible
11 Jun ? 00:32:50 23° SE 00:33:58 25° ESE 00:38:19 10° NE visible
11 Jun ? 02:11:50 22° SW 02:15:13 61° NW 02:20:45 10° NNE visible
11 Jun ? 03:54:21 10° WNW 03:58:08 19° NNW 04:02:04 10° NNE visible
11 Jun ? 23:38:47 11° ESE 23:39:24 12° E 23:41:08 10° E visible
12 Jun ? 01:17:47 35° SSW 01:20:00 72° ESE 01:25:32 10° NE visible
12 Jun ? 02:57:45 10° W 03:02:17 28° NW 03:07:05 10° NNE visible
13 Jun ? 00:23:40 30° SE 00:25:04 36° ESE 00:30:02 10° NE visible
13 Jun ? 02:02:40 16° WSW 02:06:40 45° NW 02:12:03 10° NNE visible
13 Jun ? 03:46:31 10° WNW 03:49:52 16° NNW 03:53:19 10° NNE visible
13 Jun ? 23:29:30 17° ESE 23:30:23 18° ESE 23:33:52 10° ENE visible
14 Jun ? 01:08:30 28° SW 01:11:19 82° NW 01:16:56 10° NE visible
14 Jun ? 02:49:43 10° W 02:53:55 23° NNW 02:58:20 10° NNE visible
15 Jun ? 00:14:15 33° S 00:16:13 51° ESE 00:21:35 10° NE visible
15 Jun ? 01:53:22 10° WSW 01:58:11 35° NW 02:03:20 10° NNE visible
15 Jun ? 03:38:46 10° NW 03:41:40 14° NNW 03:44:37 10° NNE visible
15 Jun ? 23:19:57 22° SE 23:21:25 25° ESE 23:25:50 10° NE visible
16 Jun ? 00:58:56 19° SW 01:02:42 60° NW 01:08:16 10° NNE visible
16 Jun ? 02:41:48 10° WNW 02:45:37 19° NNW 02:49:34 10° NNE visible
16 Jun ? 22:25:33 11° ESE 22:26:51 12° E 22:28:48 10° E visible
17 Jun ? 00:04:31 27° SSW 00:07:27 73° ESE 00:13:02 10° NE visible
17 Jun ? 01:45:11 10° W 01:49:46 28° NW 01:54:35 10° NNE visible
17 Jun ? 03:31:01 10° NW 03:33:28 13° NNW 03:35:58 10° NNE visible
17 Jun ? 23:10:00 23° SSE 23:12:30 37° ESE 23:17:32 10° NE visible
